Find Hai Yang 3-01

NORAD ID: 58349 Int'l Des: 2023-176 Owner: GYZ/CASC Country: CN operational
LEOCIRCULARRETROGRADESSO

Live Position

Loading 3D Globe...

About Hai Yang 3-01

Description loading...

Upcoming Passes

Passes for default location (London). Set your location on the main map for personalized predictions.

Altitude History

Loading altitude history...

Two-Line Element Set

1 58349U 23176A 26105.30711634 .00000042 00000-0 30644-4 0 9994
2 58349 98.5476 183.9864 0009205 205.0836 154.9903 14.34153718126309
Epoch: Apr 15, 2026 • Age: 6 hours

Current Status

Altitude 784.0 km
Velocity 7.47 km/s
Sub-Earth Point 49.61°N, 24.33°W
Launch Date Nov 16, 2023
Age 2.4 years
Type other

Technical Details

Classification Payload
Mass 1500.00 kg
Dry Mass 1500.00 kg
Total Mass 1500.00 kg
Length 1.00 m
Diameter 1.00 m
Span 4.00 m
Shape Box + 2 Pan
Manufacturer DFHS
Bus Type CAST-968
Phase Status In Orbit
Owner/State GYZ/CASC/CN

Most Searched